Regional Weather Roundup
Issued by NWS

Home | Current Version | Previous Version | Graphics & Text | Print | Product List | Glossary On
Versions: 1 2 3 4 5 6 7 8 9 10 11 12 13 14 15 16 17 18 19 20 21 22 23 24 25 26 27 28 29 30 31 32 33 34 35 36 37 38 39 40 41 42 43 44 45 46 47 48 49 50
000
ASUS43 KBIS 180510
RWRND

NORTH DAKOTA REGIONAL WEATHER ROUNDUP
NATIONAL WEATHER SERVICE BISMARCK ND
1100 PM CST TUE JAN 17 2017

NOTE: "FAIR" INDICATES FEW OR NO CLOUDS BELOW 12,000 FEET WITH NO
SIGNIFICANT WEATHER AND/OR OBSTRUCTIONS TO VISIBILITY.


NDZ001>003-009>011-017-180600-
NORTHWEST NORTH DAKOTA

CITY           SKY/WX    TMP DP  RH WIND       PRES   REMARKS
WILLISTON      FAIR      30  22  72 S8        29.72S
MINOT          FAIR      37  26  64 SW13      29.65R
$$

NDZ018>021-031>035-040>046-180600-
SOUTHWEST NORTH DAKOTA

CITY           SKY/WX    TMP DP  RH WIND       PRES   REMARKS
BISMARCK       FAIR      28  20  71 SW8       29.76S WCI  20
DICKINSON      FAIR      31  21  66 W14       29.74S
GARRISON         N/A     28  21  75 SW6       29.70S
HETTINGER ARPT CLOUDY    26  17  68 NW8       29.81F WCI  18
$$

NDZ004>008-012>016-024-026-027-054-180600-
NORTHEAST NORTH DAKOTA

CITY           SKY/WX    TMP DP  RH WIND       PRES   REMARKS
GRAND FORKS    MOCLDY    22  15  75 S18       29.70F WCI   7
GRND FRKS AFB  CLOUDY    27  18  69 SW14      29.69F WCI  15
DEVILS LAKE    FAIR      27  21  78 SW8       29.67S WCI  19
$$

NDZ022-023-025-028>030-036>039-047>053-180600-
SOUTHEAST NORTH DAKOTA

CITY           SKY/WX    TMP DP  RH WIND       PRES   REMARKS
FARGO          CLOUDY    23  18  81 S13       29.79F WCI  11
JAMESTOWN      FAIR      28  18  66 W16       29.73S WCI  16
$$





USA.gov is the U.S. government's official web portal to all federal, state and local government web resources and services.